CW3224 Weather Reports


time (UTC)temp
F
wind
direction
speed
knots
gust
knots
rain 1hr
in
rain 24hr
in
rain mn
in
humidity
%
barometer
mb
20260831092254 59 165 0.0 0.0 0.00 0.00 0.00 89 1018.6
20260831091254 59 165 0.0 0.0 0.00 0.00 0.00 89 1018.3
20260831090255 59 165 0.0 0.0 0.00 0.00 0.00 89 1018.3
20260831085254 60 165 0.0 0.0 0.00 0.00 0.00 88 1018.2
20260831084736 60 165 0.0 0.0 0.00 0.00 0.00 88 1018.2
20260831083254 60 164 0.0 0.0 0.00 0.00 0.00 88 1018.2
20260831082255 60 165 0.0 0.0 0.00 0.00 0.00 88 1017.9
20260831081254 61 165 0.0 0.0 0.00 0.00 0.00 87 1017.8
20260831080254 61 165 0.0 0.0 0.00 0.00 0.00 87 1017.8
20260831075735 62 165 0.0 0.0 0.00 0.00 0.00 86 1017.7
20260831074254 62 165 0.0 0.0 0.00 0.00 0.00 86 1017.6
20260831074224 62 164 0.0 0.0 0.00 0.00 0.00 86 1017.6
20260831072253 62 164 0.0 0.0 0.00 0.00 0.00 86 1017.6
20260831071253 63 164 0.0 0.0 0.00 0.00 0.00 86 1017.6
20260831070252 63 164 0.0 0.0 0.00 0.00 0.00 85 1017.6
20260831065252 64 164 0.0 0.0 0.00 0.00 0.00 85 1017.6
20260831064252 64 301 0.0 0.0 0.00 0.00 0.00 85 1017.6
20260831063250 64 165 0.0 0.0 0.00 0.00 0.00 84 1017.6
20260831062250 64 165 0.0 0.0 0.00 0.00 0.00 84 1017.6
20260831061250 65 165 0.0 0.0 0.00 0.00 0.00 84 1017.2
20260831060249 65 165 0.0 0.0 0.00 0.00 0.00 84 1017.2
20260831055249 65 165 0.0 0.0 0.00 0.00 0.00 83 1017.2
20260831054239 65 165 0.0 0.0 0.00 0.00 0.00 83 1017.0
20260831053239 66 165 0.0 0.0 0.00 0.00 0.00 83 1017.0
20260831053207 66 165 0.0 0.0 0.00 0.00 0.00 83 1017.0
20260831051239 67 165 0.0 0.0 0.00 0.00 0.00 82 1016.9
20260831050237 67 165 0.0 0.0 0.00 0.00 0.00 82 1016.9
20260831045238 67 165 0.0 0.0 0.00 0.00 0.00 81 1016.7
20260831044713 68 165 0.0 0.0 0.00 0.00 0.00 81 1016.5
20260831043720 68 165 0.0 0.0 0.00 0.00 0.00 80 1016.5
20260831042716 68 165 0.0 0.0 0.00 0.00 0.00 80 1016.5
20260831041715 69 165 0.0 0.0 0.00 0.00 0.00 80 1016.5
20260831040237 69 165 0.0 0.0 0.00 0.00 0.00 80 1016.5
20260831035236 69 165 0.0 0.0 0.00 0.00 0.00 80 1016.4
20260831034225 70 165 0.0 0.0 0.00 0.00 0.00 80 1016.4
20260831033225 70 165 0.0 0.0 0.00 0.00 0.00 80 1016.4
20260831032709 70 165 0.0 0.0 0.00 0.00 0.00 80 1016.5
20260831031707 70 165 0.0 0.0 0.00 0.00 0.00 80 1016.4
20260831030224 70 165 0.0 0.0 0.00 0.00 0.00 81 1016.4
20260831025220 70 165 0.0 0.0 0.00 0.00 0.00 81 1016.1
20260831024222 71 146 0.0 0.0 0.00 0.00 0.00 81 1016.5
20260831023221 71 141 0.0 1.7 0.00 0.00 0.00 81 1016.5
20260831022221 71 141 0.0 0.9 0.00 0.00 0.00 82 1016.4
20260831021701 71 141 0.0 0.9 0.00 0.00 0.00 81 1016.4
20260831020222 71 135 0.0 0.0 0.00 0.00 0.00 81 1016.4
20260831015216 71 135 0.0 0.0 0.00 0.00 0.00 81 1016.0
20260831014215 71 135 0.0 0.0 0.00 0.00 0.00 81 1016.0
20260831013216 71 127 0.0 1.7 0.00 0.00 0.00 80 1016.0
20260831012213 72 180 0.0 0.9 0.00 0.00 0.00 80 1015.9
20260831011214 72 180 0.0 3.5 0.00 0.00 0.00 79 1015.7
20260831010211 72 154 0.0 0.0 0.00 0.00 0.00 79 1015.7
20260831005211 72 137 0.0 0.0 0.00 0.00 0.00 79 1015.6
20260831004211 72 224 0.0 0.0 0.00 0.00 0.00 79 1015.5
20260831003211 72 224 0.0 2.6 0.00 0.00 0.00 78 1015.5
20260831002212 72 185 0.0 0.0 0.00 0.00 0.00 78 1015.4
20260831001209 72 191 0.0 0.0 0.00 0.00 0.00 77 1015.1
20260831000653 72 180 0.0 1.7 0.00 0.00 0.00 76 1015.1
20260830235208 72 191 0.0 2.6 0.00 0.00 0.00 76 1015.0
20260830234208 73 193 0.0 0.0 0.00 0.00 0.00 75 1014.9
20260830233211 73 192 0.0 0.0 0.00 0.00 0.00 74 1014.9
20260830232207 73 200 0.0 0.0 0.00 0.00 0.00 74 1014.9
20260830231207 73 200 0.0 0.0 0.00 0.00 0.00 73 1015.0
20260830230652 74 200 0.0 0.0 0.00 0.00 0.00 72 1015.0
20260830225206 74 200 0.0 0.0 0.00 0.00 0.00 71 1015.4
20260830224207 74 201 0.0 1.7 0.00 0.00 0.00 71 1015.4
20260830223206 74 181 0.0 4.3 0.00 0.00 0.00 70 1015.4
20260830222205 74 194 0.0 4.3 0.00 0.00 0.00 70 1015.4
20260830221205 75 204 0.0 1.7 0.00 0.00 0.00 70 1015.5
20260830220205 75 195 0.0 7.8 0.00 0.00 0.00 70 1015.5
20260830215205 75 193 0.0 0.0 0.00 0.00 0.00 70 1015.5
20260830214205 75 169 0.0 0.0 0.00 0.00 0.00 71 1015.5
20260830213206 75 200 0.0 0.0 0.00 0.00 0.00 72 1015.5
20260830212203 75 204 0.0 3.5 0.00 0.00 0.00 71 1015.4
20260830211635 76 243 0.0 0.0 0.00 0.00 0.00 70 1015.8
20260830210200 76 243 0.0 0.0 0.00 0.00 0.00 71 1015.8
20260830210109 76 162 0.0 1.7 0.00 0.00 0.00 70 1015.6
20260830204157 76 207 0.0 0.0 0.00 0.00 0.00 70 1015.7
20260830203156 76 189 0.0 0.9 0.00 0.00 0.00 69 1015.7
20260830202157 76 195 0.0 0.0 0.00 0.00 0.00 70 1016.0
20260830201157 76 195 0.0 4.3 0.00 0.00 0.00 68 1016.0
20260830200157 76 179 0.0 4.3 0.00 0.00 0.00 68 1016.0
20260830195158 76 208 0.0 0.0 0.00 0.00 0.00 68 1016.0
20260830194157 76 197 0.0 5.2 0.00 0.00 0.00 67 1016.5
20260830193154 76 187 1.7 4.3 0.00 0.00 0.00 67 1016.5
20260830192639 77 184 1.7 6.1 0.00 0.00 0.00 66 1016.5
20260830191153 77 183 1.7 5.2 0.00 0.00 0.00 65 1016.8
20260830190154 78 202 1.7 5.2 0.00 0.00 0.00 63 1016.8
20260830185151 78 212 2.6 5.2 0.00 0.00 0.00 63 1016.9
20260830184152 79 179 1.7 6.1 0.00 0.00 0.00 64 1017.0
20260830183151 79 216 0.9 4.3 0.00 0.00 0.00 65 1017.0
20260830182151 79 213 0.0 3.5 0.00 0.00 0.00 65 1017.0
20260830181150 78 179 0.0 0.0 0.00 0.00 0.00 67 1017.2
20260830180150 78 188 0.9 2.6 0.00 0.00 0.00 64 1017.2
20260830175150 78 187 0.9 5.2 0.00 0.00 0.00 65 1017.6
20260830174150 78 189 0.9 3.5 0.00 0.00 0.00 65 1017.7
20260830173150 78 198 1.7 5.2 0.00 0.00 0.00 64 1017.7
20260830172638 79 339 1.7 4.3 0.00 0.00 0.00 67 1017.8
20260830171151 78 231 1.7 6.1 0.00 0.00 0.00 64 1017.8
20260830170150 78 164 0.9 4.3 0.00 0.00 0.00 64 1017.8
20260830165151 78 171 0.9 5.2 0.00 0.00 0.00 63 1018.0
20260830164151 78 187 0.9 6.1 0.00 0.00 0.00 62 1018.3
20260830163151 79 306 0.9 3.5 0.00 0.00 0.00 64 1018.3
20260830162150 79 244 0.9 6.1 0.00 0.00 0.00 62 1018.2
20260830161149 78 130 0.9 8.7 0.00 0.00 0.00 62 1018.6
20260830160148 78 127 0.9 3.5 0.00 0.00 0.00 62 1018.6
20260830155148 78 177 0.9 5.2 0.00 0.00 0.00 59 1018.6
20260830154148 79 110 0.9 4.3 0.00 0.00 0.00 62 1018.6
20260830153528 79 183 0.9 4.3 0.00 0.00 0.00 60 1018.7
20260830153205 80 216 0.9 5.2 0.00 0.00 0.00 57 1018.6
20260830151138 79 209 1.7 7.8 0.00 0.00 0.00 59 1018.8
20260830150138 79 187 1.7 6.1 0.00 0.00 0.00 60 1018.8
20260830145138 79 154 0.9 5.2 0.00 0.00 0.00 62 1018.7
20260830144138 79 203 1.7 5.2 0.00 0.00 0.00 64 1018.7
20260830143137 78 173 1.7 6.1 0.00 0.00 0.00 64 1018.7
20260830142140 78 268 1.7 7.8 0.00 0.00 0.00 65 1018.7
20260830141138 76 150 2.6 6.1 0.00 0.00 0.00 67 1018.9
20260830140138 74 189 1.7 7.8 0.00 0.00 0.00 71 1018.9
20260830135620 73 174 1.7 6.1 0.00 0.00 0.00 72 1019.2
20260830134138 72 173 0.9 6.1 0.00 0.00 0.00 72 1019.2
20260830133139 71 189 1.7 4.3 0.00 0.00 0.00 72 1019.2
20260830132139 69 179 0.9 5.2 0.00 0.00 0.00 74 1019.2
20260830131139 69 146 0.9 3.5 0.00 0.00 0.00 78 1019.3
20260830130139 67 244 0.9 3.5 0.00 0.00 0.00 78 1019.3
20260830125139 66 177 0.9 5.2 0.00 0.00 0.00 81 1019.5
20260830124129 65 353 0.9 4.3 0.00 0.00 0.00 82 1019.7
20260830123127 64 188 0.9 2.6 0.00 0.00 0.00 83 1019.7
20260830122129 63 188 0.9 4.3 0.00 0.00 0.00 84 1019.8
20260830121612 62 195 0.9 3.5 0.00 0.00 0.00 85 1019.8
20260830120606 61 301 0.9 3.5 0.00 0.00 0.00 86 1019.8
20260830115126 60 301 0.9 2.6 0.00 0.00 0.00 87 1019.8
20260830114126 59 301 0.9 2.6 0.00 0.00 0.00 88 1019.8
20260830113126 58 301 0.0 0.9 0.00 0.00 0.00 88 1019.8
20260830112127 58 301 0.0 2.6 0.00 0.00 0.00 88 1019.8
20260830111127 58 301 0.0 2.6 0.00 0.00 0.00 88 1019.8
20260830110606 58 301 0.9 1.7 0.00 0.00 0.00 88 1019.8
20260830105120 58 301 0.0 1.7 0.00 0.00 0.00 88 1019.9
20260830104119 57 301 0.0 1.7 0.00 0.00 0.00 88 1019.8
20260830103604 57 301 0.9 3.5 0.00 0.00 0.00 88 1019.8
20260830102609 57 301 0.9 2.6 0.00 0.00 0.00 89 1019.8
20260830101120 57 301 0.0 1.7 0.00 0.00 0.00 89 1019.9
20260830100117 57 301 0.9 4.3 0.00 0.00 0.00 89 1019.9
20260830095119 57 301 0.0 0.0 0.00 0.00 0.00 89 1019.8
20260830094117 57 301 0.0 0.0 0.00 0.00 0.00 89 1019.8
20260830093118 57 301 0.0 0.0 0.00 0.00 0.00 89 1019.8